Location: Perryvale
(54.4667°N, 113.3833°W)
Time: 00:46:22
(UTC+00:00)

Vanguard 1 Rocket - Pass Details

Date: 24 May 2024
Orbit: 649 x 4221 km, 34.3° (Epoch: 13 June)

Event Time Altitude Azimuth Distance (km) Brightness Sun altitude
Rises 18:38:59 0° 250° (WSW) 7,676 12.1 55.1°
Reaches altitude 10° 18:45:45 10° 241° (WSW) 6,098 11.8 55.4°
Maximum altitude 18:58:55 29° 192° (SSW) 3,394 11.5 56.0°
Drops below altitude 10° 19:06:58 10° 137° (SE) 3,647 11.1 56.2°
Sets 19:09:50 0° 125° (SE) 4,251 11.2 56.3°
